Torna al catalogo

STARLINK-4185

AttivoComunicazioniVLEO
NORAD 53139·PAYLOAD·🇺🇸 United States

Lanciato Jul 17, 2022 da Cape Canaveral Space Force Station

Loading…

Prossimi Passaggi (prossime 24 ore)

TLE

AggiornatoSource: CelesTrak SupGP

Epoca: Sep 15, 2026, 01:19 UTC

1 53139C 22083H   26258.05534722 -.00043845  00000+0 -12957-2 0  2586
2 53139  53.1593  34.8482 0001227  85.5868  66.1521 15.34406712    15

Traccia STARLINK-4185 in tempo reale con AllMySat

Download on the App Store